Location: Minneapolis
(45.0000°N, 93.0000°W)
Time: 03:05:13
(UTC-05:00)

Tiangong 2 - Visible Passes

Search period start: 23 October 2017 00:00
Search period end: 02 November 2017 00:00
Orbit: 388 x 391 km, 42.8° (Epoch: 22 October)

Date Brightness Start Highest point End Pass type
(mag) Time Alt. Az. Time Alt. Az. Time Alt. Az.
30 Oct 3.3 19:32:16 10° S 19:33:52 15° SSE 19:33:52 15° SSE visible
31 Oct 3.4 20:09:47 10° SW 20:11:03 20° SSW 20:11:03 20° SSW visible
01 Nov 2.7 19:12:12 10° SSW 19:14:49 23° SSE 19:15:50 20° SE visible
